When you browse on this site, cookies collect data to enhance your experience and personalize the content and advertising you see.
Visit our Privacy Policy to learn more. By continuing to use the site, you agree to this use of cookies and data.
  • In United Kingdom
  • List of Countries
  • For 7 days
  • Water Temperature
  • Satellite Maps
  • Weather Map
  • Weather Widgets
  • user-avatar
    Login

    Hourly Weather Makadi Bey

    Today, 23 May, Thursday

    Time Temperature Precipitation Wind Pressure Humidity
    00:00 +32°C° 0 mm 2 mps 706 mmHg 9%
    01:00 +32°C° 0 mm 2 mps 706 mmHg 9%
    02:00 +31°C° 0 mm 2 mps 706 mmHg 9%
    03:00 +31°C° 0 mm 2 mps 706 mmHg 10%
    04:00 +31°C° 0 mm 2 mps 706 mmHg 10%
    05:00 +30°C° 0 mm 2 mps 706 mmHg 11%
    06:00 +34°C° 0 mm 3 mps 707 mmHg 10%
    07:00 +36°C° 0 mm 4 mps 707 mmHg 9%
    08:00 +39°C° 0 mm 5 mps 708 mmHg 9%
    09:00 +40°C° 0 mm 5 mps 708 mmHg 9%
    10:00 +41°C° 0 mm 6 mps 708 mmHg 8%
    11:00 +42°C° 0 mm 6 mps 708 mmHg 8%
    12:00 +42°C° 0 mm 6 mps 707 mmHg 8%
    13:00 +42°C° 0 mm 6 mps 707 mmHg 7%
    14:00 +44°C° 0 mm 6 mps 707 mmHg 7%
    15:00 +42°C° 0 mm 5 mps 706 mmHg 7%
    16:00 +42°C° 0 mm 5 mps 706 mmHg 7%
    17:00 +42°C° 0 mm 5 mps 705 mmHg 7%
    18:00 +40°C° 0 mm 4 mps 705 mmHg 8%
    19:00 +37°C° 0 mm 2 mps 705 mmHg 9%
    20:00 +35°C° 0 mm 1 mps 705 mmHg 9%
    21:00 +34°C° 0 mm 1 mps 705 mmHg 9%
    22:00 +34°C° 0 mm 1 mps 705 mmHg 9%
    23:00 +33°C° 0 mm 1 mps 705 mmHg 9%

    Tomorrow, 24 May, Friday

    Time Temperature Precipitation Wind Pressure Humidity
    00:00 +32°C° 0 mm 1 mps 705 mmHg 10%
    01:00 +32°C° 0 mm 1 mps 705 mmHg 10%
    02:00 +31°C° 0 mm 1 mps 704 mmHg 11%
    03:00 +30°C° 0 mm 1 mps 704 mmHg 11%
    04:00 +30°C° 0 mm 1 mps 704 mmHg 11%
    05:00 +29°C° 0 mm 1 mps 704 mmHg 12%
    06:00 +32°C° 0 mm 1 mps 705 mmHg 10%
    07:00 +34°C° 0 mm 1 mps 706 mmHg 9%
    08:00 +37°C° 0 mm 1 mps 706 mmHg 7%
    09:00 +39°C° 0 mm 1 mps 707 mmHg 7%
    10:00 +41°C° 0 mm 2 mps 707 mmHg 6%
    11:00 +43°C° 0 mm 3 mps 707 mmHg 6%
    12:00 +43°C° 0 mm 3 mps 706 mmHg 6%
    13:00 +44°C° 0 mm 4 mps 706 mmHg 6%
    14:00 +44°C° 0 mm 4 mps 706 mmHg 6%
    15:00 +44°C° 0 mm 4 mps 705 mmHg 7%
    16:00 +43°C° 0 mm 4 mps 705 mmHg 7%
    17:00 +42°C° 0 mm 4 mps 704 mmHg 8%
    18:00 +40°C° 0 mm 3 mps 704 mmHg 10%
    19:00 +38°C° 0 mm 2 mps 704 mmHg 11%
    20:00 +37°C° 0 mm 2 mps 704 mmHg 13%
    21:00 +35°C° 0 mm 1 mps 704 mmHg 13%
    22:00 +34°C° 0 mm 1 mps 704 mmHg 13%
    23:00 +34°C° 0 mm 1 mps 704 mmHg 13%

    Day after tomorrow, 25 May, Saturday

    Time Temperature Precipitation Wind Pressure Humidity
    00:00 +33°C° 0 mm 1 mps 704 mmHg 12%
    01:00 +33°C° 0 mm 1 mps 704 mmHg 12%
    02:00 +30°C° 0 mm 0 mps 704 mmHg 11%
    03:00 +32°C° 0 mm 1 mps 704 mmHg 12%
    04:00 +31°C° 0 mm 1 mps 704 mmHg 13%
    05:00 +31°C° 0 mm 1 mps 704 mmHg 15%
    06:00 +32°C° 0 mm 2 mps 705 mmHg 14%
    07:00 +35°C° 0 mm 2 mps 706 mmHg 14%
    08:00 +37°C° 0 mm 2 mps 706 mmHg 14%
    09:00 +38°C° 0 mm 2 mps 707 mmHg 13%
    10:00 +39°C° 0 mm 3 mps 707 mmHg 12%
    11:00 +40°C° 0 mm 3 mps 707 mmHg 11%
    12:00 +42°C° 0 mm 3 mps 707 mmHg 11%
    13:00 +42°C° 0 mm 3 mps 706 mmHg 12%
    14:00 +42°C° 0 mm 3 mps 706 mmHg 12%
    15:00 +40°C° 0 mm 3 mps 705 mmHg 14%
    16:00 +41°C° 0 mm 4 mps 705 mmHg 15%
    17:00 +40°C° 0 mm 4 mps 704 mmHg 17%
    18:00 +37°C° 0 mm 3 mps 705 mmHg 20%
    19:00 +36°C° 0 mm 3 mps 705 mmHg 24%
    20:00 +34°C° 0 mm 3 mps 705 mmHg 27%
    21:00 +34°C° 0 mm 2 mps 705 mmHg 27%
    22:00 +32°C° 0 mm 2 mps 705 mmHg 26%
    23:00 +32°C° 0 mm 2 mps 705 mmHg 26%

    26 May, Sunday

    Time Temperature Precipitation Wind Pressure Humidity
    00:00 +31°C° 0 mm 2 mps 705 mmHg 25%
    01:00 +31°C° 0 mm 2 mps 705 mmHg 24%
    02:00 +30°C° 0 mm 2 mps 704 mmHg 23%
    03:00 +30°C° 0 mm 1 mps 704 mmHg 24%
    04:00 +29°C° 0 mm 1 mps 704 mmHg 24%
    05:00 +29°C° 0 mm 1 mps 704 mmHg 25%
    06:00 +30°C° 0 mm 1 mps 705 mmHg 22%
    07:00 +32°C° 0 mm 1 mps 705 mmHg 19%
    08:00 +34°C° 0 mm 1 mps 706 mmHg 17%
    09:00 +36°C° 0 mm 1 mps 706 mmHg 15%
    10:00 +37°C° 0 mm 1 mps 706 mmHg 13%
    11:00 +40°C° 0 mm 1 mps 706 mmHg 11%
    12:00 +40°C° 0 mm 2 mps 706 mmHg 10%
    13:00 +41°C° 0 mm 2 mps 705 mmHg 10%
    14:00 +42°C° 0 mm 2 mps 705 mmHg 9%
    15:00 +41°C° 0 mm 2 mps 705 mmHg 10%
    16:00 +41°C° 0 mm 2 mps 704 mmHg 11%
    17:00 +40°C° 0 mm 2 mps 704 mmHg 12%
    18:00 +39°C° 0 mm 2 mps 704 mmHg 14%
    19:00 +37°C° 0 mm 2 mps 704 mmHg 16%
    20:00 +36°C° 0 mm 2 mps 705 mmHg 18%
    21:00 +34°C° 0 mm 1 mps 705 mmHg 19%
    22:00 +34°C° 0 mm 1 mps 705 mmHg 19%
    23:00 +33°C° 0 mm 1 mps 705 mmHg 20%

    27 May, Monday

    Time Temperature Precipitation Wind Pressure Humidity
    00:00 +33°C° 0 mm 1 mps 704 mmHg 20%
    01:00 +32°C° 0 mm 1 mps 704 mmHg 20%
    02:00 +32°C° 0 mm 1 mps 703 mmHg 20%
    03:00 +31°C° 0 mm 1 mps 703 mmHg 20%
    04:00 +30°C° 0 mm 1 mps 703 mmHg 20%
    05:00 +28°C° 0 mm 0 mps 703 mmHg 20%
    06:00 +32°C° 0 mm 1 mps 704 mmHg 18%
    07:00 +34°C° 0 mm 1 mps 704 mmHg 16%
    08:00 +36°C° 0 mm 1 mps 705 mmHg 13%
    09:00 +37°C° 0 mm 1 mps 705 mmHg 12%
    10:00 +40°C° 0 mm 2 mps 705 mmHg 11%
    11:00 +41°C° 0 mm 2 mps 705 mmHg 10%
    12:00 +43°C° 0 mm 3 mps 705 mmHg 9%
    13:00 +43°C° 0 mm 4 mps 704 mmHg 9%
    14:00 +44°C° 0 mm 4 mps 704 mmHg 8%
    15:00 +44°C° 0 mm 4 mps 704 mmHg 8%
    16:00 +43°C° 0 mm 4 mps 704 mmHg 8%
    17:00 +43°C° 0 mm 4 mps 704 mmHg 8%
    18:00 +40°C° 0 mm 3 mps 704 mmHg 9%
    19:00 +39°C° 0 mm 3 mps 704 mmHg 9%
    20:00 +37°C° 0 mm 2 mps 704 mmHg 10%
    21:00 +35°C° 0 mm 1 mps 704 mmHg 11%
    22:00 +34°C° 0 mm 1 mps 704 mmHg 12%
    23:00 +33°C° 0 mm 1 mps 704 mmHg 13%

    28 May, Tuesday

    Time Temperature Precipitation Wind Pressure Humidity
    00:00 +33°C° 0 mm 1 mps 704 mmHg 14%
    01:00 +32°C° 0 mm 1 mps 703 mmHg 15%
    02:00 +31°C° 0 mm 1 mps 703 mmHg 16%
    03:00 +31°C° 0 mm 1 mps 703 mmHg 16%
    04:00 +30°C° 0 mm 1 mps 703 mmHg 16%
    05:00 +30°C° 0 mm 1 mps 703 mmHg 17%
    06:00 +32°C° 0 mm 1 mps 704 mmHg 15%
    07:00 +34°C° 0 mm 1 mps 704 mmHg 13%
    08:00 +36°C° 0 mm 1 mps 705 mmHg 11%
    09:00 +37°C° 0 mm 1 mps 705 mmHg 11%
    10:00 +40°C° 0 mm 2 mps 705 mmHg 10%
    11:00 +42°C° 0 mm 3 mps 705 mmHg 9%
    12:00 +43°C° 0 mm 3 mps 705 mmHg 9%
    13:00 +43°C° 0 mm 3 mps 704 mmHg 9%
    14:00 +44°C° 0 mm 3 mps 704 mmHg 8%
    15:00 +43°C° 0 mm 3 mps 704 mmHg 9%
    16:00 +43°C° 0 mm 3 mps 704 mmHg 9%
    17:00 +43°C° 0 mm 3 mps 704 mmHg 9%
    18:00 +40°C° 0 mm 2 mps 704 mmHg 11%
    19:00 +39°C° 0 mm 2 mps 704 mmHg 12%
    20:00 +36°C° 0 mm 1 mps 704 mmHg 14%
    21:00 +35°C° 0 mm 1 mps 704 mmHg 15%
    22:00 +36°C° 0 mm 2 mps 704 mmHg 16%
    23:00 +35°C° 0 mm 2 mps 704 mmHg 18%
    Show more